Location: Bucharest
(44.4268°N, 26.1025°E)
Time: 13:54:34
(UTC+03:00)

BEESAT - Visible Passes

Search period start: 29 June 2022 00:00
Search period end: 09 July 2022 00:00
Orbit: 698 x 708 km, 98.6° (Epoch: 28 June)

Date Brightness Start Highest point End Pass type
(mag) Time Alt. Az. Time Alt. Az. Time Alt. Az.
29 Jun ? 21:49:52 10° NNE 21:54:40 87° WNW 21:59:26 10° SSW visible
29 Jun ? 23:29:54 10° NW 23:31:38 12° WNW 23:33:21 10° WNW visible
30 Jun ? 22:33:09 10° N 22:37:27 34° WNW 22:41:45 10° SW visible
01 Jul ? 21:38:05 10° NNE 21:42:52 73° ESE 21:47:37 10° S visible
01 Jul ? 23:17:18 10° NNW 23:20:00 15° WNW 23:22:41 10° W visible
02 Jul ? 22:21:12 10° N 22:25:44 44° WNW 22:30:15 10° SW visible
03 Jul ? 23:05:01 10° NNW 23:08:20 19° WNW 23:11:40 10° WSW visible
04 Jul ? 22:09:17 10° N 22:13:58 58° WNW 22:18:39 10° SSW visible
05 Jul ? 22:52:51 10° N 22:56:40 24° WNW 23:00:27 10° WSW visible
06 Jul ? 21:57:25 10° N 22:02:12 76° WNW 22:06:58 10° SSW visible
06 Jul ? 23:38:16 10° NW 23:39:04 10° NW 23:39:52 10° WNW visible
07 Jul ? 22:40:48 10° N 22:44:57 30° WNW 22:49:06 10° SW visible
08 Jul ? 21:45:35 10° NNE 21:50:24 83° ESE 21:55:11 10° SSW visible
08 Jul ? 23:25:11 10° NNW 23:27:26 13° WNW 23:29:42 10° W visible
